Погода Шангалы

Поиск расширенной информации на нашем сайте:

Полезная информация:

Новости сайта



02.01.2020
Опубликован Долгосрочный прогноз погоды по городам России и ближнего зарубежья на январь 2020 года.
Карты: Прогноз на январь и февраль 2020 года, Сравнение прогнозируемой аномалии приземной температуры воздуха на январь 2020 года по разным моделям.




Погода Шангалы - сегодня

Время (UTC), дата Ветер
(°,м/с) 
Видим.   Явления Облачность Т
(°С)
Тd
(°С)
f(%) Тe
(°С)
Pmin
(гПа)
dP
(гПа)
Po
(мм)
O2
(г/м3)
Тmin Tmax R s Состояние
почвы
15 29.11.20 100 (В) 20000 м    10/10 240 м 
[St]
-7.1 -8.5 90 -9  1041.4  0.1  769  319    -7.1       
18 29.11.20 100 (В) 20000 м    10/10 240 м 
[St]
-6.3 -7.6 90 -8  1041.1  -0.2  769  318           
21 29.11.20 110 (В) 20000 м    10/10 240 м 
[St]
-5.1 -6.4 91 -6  1040.5  -0.5  769  316           
00 30.11.20 140 (ЮВ) 20000 м    10/10 240 м 
[St]
-4.2 -5.5 91 -6  1040.1  -0.4  768  315           
03 30.11.20 120 (ЮВ) 4000 м  дымка  10/10 180 м 
[St]
-3.7 -4.4 95 -6  1038.7  -1.3  767  314  -7.1      равномерный
сухой снег
100% 
06 30.11.20 120 (ЮВ) 10 км    10/10 150 м 
[St]
-2.8 -3.8 93 -5  1038  -0.7  767  313           
09 30.11.20 130 (ЮВ) 10 км    10/10 180 м 
[St]
-1.7 -2.9 91 -4  1037.2  -0.7  766  311           
12 30.11.20 120 (ЮВ) 10 км    8/3 300 м средняя, верхняя 
[St|Ac trans|Ci fib]
-1.5 -2.8 91 -3  1035.6  -1.6  765  310           
15 30.11.20 140 (ЮВ) 20000 м    10/10 330 м 
[St]
-0.8 -2.5 88 -4  1033.5  -2  764  309    -0.8       
18 30.11.20 150 (ЮВ) 10 км  слаб. снег  10/10 400 м 
[Sc]
-0.3 -1.9 89 -3  1031.9  -1.5  763  308           
21 30.11.20 160 (Ю) 10 км  слаб. снег  10/10 330 м 
[Frnb]
-0.5 -2.2 88 -4  1031.7  -0.3  762  308           
00 01.12.20 160 (Ю) 4{10}  20000 м  {снег}  10/10 240 м 
[St]
-1.5 -2.9 90 -4  1031.4  -0.3  762  309           
03 01.12.20 160 (Ю) 10 км  слаб. снег  10/10 330 м 
[Frnb]
-2.6 -4.3 88 -5  1031.1  -0.3  762  310  -2.6    0.2  равномерный
сухой снег
100% 
06 01.12.20 180 (Ю) 10 км  слаб. снег  10/10 330 м 
[Frnb]
-3.8 -5.6 87 -7  1031.4  0.2  762  312  -3.8         
09 01.12.20 160 (Ю) 4000 м  слаб. снег  10/10 360 м 
[Frnb]
-4 -5.7 88 -6  1031.5  0.1  762  312           
12 01.12.20 170 (Ю) 10 км  слаб. снег  10/10 360 м 
[Frnb]
-3.9 -5.9 86 -7  1031.3  -0.2  762  312           
15 01.12.20 180 (Ю) 4000 м  снег  10/10 210 м 
[Frnb|Ns]
-4.5 -5.7 91 -7  1032.3  0.9  763  313    -2.6     
18 01.12.20 200 (Ю) 4-10{10}  10 км  слаб. снег  10/10 330 м 
[Frnb|Ns]
-4.1 -6.1 86 -7  1032.9  0.7  763  313           
21 01.12.20 200 (Ю) 4{10}  20000 м  {снег}  10/10 330 м 
[Frnb]
-3.9 -5.9 86 -7  1033.1  0.7  763  313           
00 02.12.20 200 (Ю) 20000 м  {снег}  10/10 240 м 
[Frnb]
-3.9 -5.7 87 -7  1033.4  0.3  763  313           
03 02.12.20 200 (Ю) 20000 м    10/10 270 м 
[Frnb]
-3.6 -5.4 87 -7  1032.9  -0.4  763  312  -4.6    0.3  равномерный
сухой снег
100% 
06 02.12.20 200 (Ю) 4000 м  снег  10/8 300 м средняя 
[Frnb|As op]
-3.5 -4.3 94 -6  1033.2  0.4  763  312           
09 02.12.20 200 (Ю) 2000 м  снег  10/6 300 м средняя 
[Frnb|As op]
-2.9 -3.8 93 -4  1033.9  0.7  764  312           
12 02.12.20 200 (Ю) 4000 м  слаб. снег  10/8 330 м средняя 
[Frnb|As op]
-2.6 -3.4 94 -4  1034.6  0.7  764  311           
15 02.12.20 210 (ЮЗ) 10 км  слаб. снег  9/3 300 м средняя 
[Frnb|As trans]
-2.4 -3.8 90 -3  1035.2  0.6  765  311    -2.4     
Время (UTC), дата Ветер
(°,м/с) 
Видим.   Явления Облачность Т
(°С)
Тd
(°С)
f(%) Тe
(°С)
Pmin
(гПа)
dP
(гПа)
Po
(мм)
O2
(г/м3)
Тmin Tmax R s Состояние
почвы

Для получения пояснительной информации подведите курсор к названию столбца.

ПОГОДА Шангалы - архив

Всё, что Вы хотите узнать о погоде Шангалы - удобно и подробно!

Выберите нужную дату (начиная с 1 января 2019* года) и нажмите кнопку "Найти".
Будут отображены архивные сводки погоды по пункту Шангалы, начиная с указанной даты.


Отображать данные в формате CSV (для использования в таблицах Excel)


Внимание! Наш архив погоды предназначен исключительно для личного некоммерческого использования в познавательных целях. Если Вам необходимы официальные справки о состоянии погоды (для производственных, юридических, коммерческих и т.п. целей), обращайтесь в органы Росгидромета.

*Примечание: данная дата относится к архиву по метеостанциям СССР (Россия, СНГ, Балтия).
Архив по метеостанциям Зарубежной Европы и Азии (кроме Китая) хранится 10 дней, по другим регионам земного шара (Китай, Африка, Америка, Австралия, Океания) - 1 день.

Шангалы - район местоположения метеостанции


Название, широта, долгота, высота метеостанции:
Шангалы 61.1°ш. 43.4°д. 122 м над ур. моря [Российская Федерация]

Дополнительная информация

В oтличие oт бoльшинства пoгoдных сайтoв мы публикуем пoдрoбную метеoинфoрмацию в детальнoм прoфессиoнальнoм фoрмате.

Характеристики температуры и влажнoсти вoздуха измеряются на высoте 2 м в тени вдали oт зданий и деревьев.
Скoрoсть ветра измеряется на высoте 10 м (на урoвне рoста челoвека скoрoсть ветра ниже в 1.5-2 раза). Если метеoстанция нахoдится в гoрoде или в лесу, тo скoрoсть ветра занижена на 2-4 м/с пo сравнению с oткрытым местoм. Скoрoсть ветра над акватoриями крупных рек и oзёр, а также на вершинах хoлмoв на 2-5 м/с выше, чем в oбычных услoвиях.
Атмoсфернoе давление в разных тoчках местнoсти мoжет значительнo oтличаться oт давления на метеoстанции, в зависимoсти oт услoвий рельефа (при пoдъёме на 10 м давление пoнижается примернo на 1 мм рт.ст.).